EW6466 Weather Reports


Display with metric or nautical units.
time (UTC)temp
F
wind
direction
speed
MPH
gust
MPH
rain 1hr
in
rain 24hr
in
rain mn
in
humidity
%
barometer
mb
20260505030017 72 167 4.0 10.0 0.00 0.00 0.00 75 1008.3
20260505024503 72 155 2.0 11.0 0.00 0.00 0.00 74 1008.3
20260505023004 72 171 2.0 9.0 0.00 0.00 0.00 74 1008.3
20260505021503 72 142 3.0 11.0 0.00 0.00 0.00 73 1008.2
20260505020002 73 179 1.0 7.0 0.00 0.00 0.00 72 1008.2
20260505014502 73 205 3.0 6.0 0.00 0.00 0.00 71 1008.1
20260505013001 74 210 2.0 6.0 0.00 0.00 0.00 71 1008.1
20260505011603 74 215 3.0 9.0 0.00 0.00 0.00 70 1008.0
20260505011501 74 170 3.0 9.0 0.00 0.00 0.00 70 1008.0
20260505010112 74 182 2.0 8.0 0.00 0.00 0.00 69 1007.9
20260505004631 75 178 5.0 10.0 0.00 0.00 0.00 68 1008.0
20260505003101 75 167 4.0 10.0 0.00 0.00 0.00 67 1008.1
20260505001557 76 159 6.0 12.0 0.00 0.00 0.00 67 1008.2
20260505000111 76 164 7.0 13.0 0.00 0.00 0.00 66 1007.9
20260504234556 77 202 6.0 13.0 0.00 0.00 0.00 65 1008.0
20260504233055 78 107 6.0 16.0 0.00 0.00 0.00 64 1008.0
20260504231620 78 86 6.0 14.0 0.00 0.00 0.00 64 1007.9
20260504230052 78 150 4.0 13.0 0.00 0.00 0.00 63 1008.3
20260504224551 78 167 7.0 14.0 0.00 0.00 0.00 63 1008.1
20260504223050 79 152 8.0 14.0 0.00 0.00 0.00 62 1008.4
20260504221621 79 205 8.0 14.0 0.00 0.00 0.00 60 1008.6
20260504220046 79 175 8.0 14.0 0.00 0.00 0.00 60 1008.8
20260504214542 79 166 9.0 17.0 0.00 0.00 0.00 59 1008.9
20260504213044 80 198 6.0 18.0 0.00 0.00 0.00 58 1009.1
20260504211538 80 179 7.0 14.0 0.00 0.00 0.00 60 1009.3
20260504210040 80 179 8.0 16.0 0.00 0.00 0.00 58 1009.5
20260504204535 79 203 7.0 17.0 0.00 0.00 0.00 60 1009.8
20260504203034 79 172 8.0 14.0 0.00 0.00 0.00 61 1010.0
20260504201529 78 159 7.0 11.0 0.00 0.00 0.00 61 1010.3
20260504200028 77 212 7.0 18.0 0.00 0.00 0.00 63 1010.6
20260504194525 76 139 8.0 16.0 0.00 0.00 0.00 64 1011.1
20260504193024 78 209 7.0 15.0 0.00 0.00 0.00 61 1011.2
20260504191524 76 142 6.0 12.0 0.00 0.00 0.00 64 1011.3
20260504190021 77 195 9.0 17.0 0.00 0.00 0.00 62 1011.2
20260504184537 76 189 8.0 15.0 0.00 0.00 0.00 64 1011.4
20260504183018 76 209 9.0 17.0 0.00 0.00 0.00 65 1011.6
20260504181518 77 217 8.0 16.0 0.00 0.00 0.00 63 1011.9
20260504180012 76 244 7.0 14.0 0.00 0.00 0.00 65 1012.0
20260504174508 74 206 6.0 17.0 0.00 0.00 0.00 68 1012.2
20260504173013 73 165 8.0 19.0 0.00 0.00 0.00 69 1012.5
20260504171504 73 192 8.0 17.0 0.00 0.00 0.00 69 1012.5
20260504081553 62 184 9.0 16.0 0.00 0.00 0.00 79 1014.5
20260504050013 66 219 8.0 15.0 0.00 0.00 0.00 62 1016.4
20260504044514 66 165 4.0 9.0 0.00 0.00 0.00 61 1016.6
20260504043013 66 173 3.0 9.0 0.00 0.00 0.00 59 1016.5
20260504041512 66 201 3.0 8.0 0.00 0.00 0.00 57 1016.4
20260504040015 66 260 2.0 6.0 0.00 0.00 0.00 56 1016.5
20260504034517 65 211 2.0 6.0 0.00 0.00 0.00 56 1016.4
20260504033010 65 173 2.0 4.0 0.00 0.00 0.00 56 1016.5
20260504031509 66 172 1.0 3.0 0.00 0.00 0.00 55 1016.5